This is the latest recevied weather packets stored in our database for station/object N0QV. If no packets are shown the sender has not sent any weather packets the latest 10 day(s).
| Time | Temp. | Humidity | Pressure | Rain* | Wind** | Luminosity | Snow |
|---|---|---|---|---|---|---|---|
| 1788099425 | 25° C | 80% | 1008.4 hPa | 0 mm | - | 193 W/m² | - |
| 1788099120 | 25° C | 82% | 1008.5 hPa | 0 mm | - | 173 W/m² | - |
| 1788098815 | 25° C | 79% | 1008.5 hPa | 0 mm | - | 187 W/m² | - |
| 1788098510 | 25° C | 78% | 1008.6 hPa | 0 mm | - | 112 W/m² | - |
| 1788098206 | 25° C | 79% | 1008.4 hPa | 0 mm | - | 250 W/m² | - |
| 1788097901 | 25° C | 80% | 1008.3 hPa | 0 mm | - | 214 W/m² | - |
| 1788097596 | 24.44° C | 79% | 1008.4 hPa | 0 mm | - | 214 W/m² | - |
| 1788097291 | 24.44° C | 81% | 1009 hPa | 0 mm | - | 206 W/m² | - |
| 1788096987 | 24.44° C | 80% | 1008.5 hPa | 0 mm | - | 195 W/m² | - |
| 1788096682 | 23.89° C | 83% | 1008.6 hPa | 0 mm | - | 171 W/m² | - |
| 1788096378 | 23.33° C | 83% | 1008.4 hPa | 0 mm | - | 144 W/m² | - |
| 1788096074 | 22.78° C | 86% | 1008.6 hPa | 0 mm | - | 137 W/m² | - |
| 1788095773 | 22.78° C | 87% | 1008.6 hPa | 0 mm | - | 130 W/m² | - |
| 1788095468 | 22.22° C | 89% | 1008.4 hPa | 0 mm | - | 56 W/m² | - |
| 1788095162 | 21.67° C | 89% | 1008.6 hPa | 0 mm | - | 50 W/m² | - |
| 1788094857 | 22.22° C | 89% | 1008.5 hPa | 0 mm | - | 55 W/m² | - |
| 1788094552 | 21.67° C | 90% | 1008.3 hPa | 0 mm | - | 72 W/m² | - |
| 1788094251 | 21.67° C | 90% | 1008.6 hPa | 0 mm | - | 49 W/m² | - |
| 1788093949 | 21.67° C | 90% | 1008.4 hPa | 0 mm | - | 50 W/m² | - |
| 1788093645 | 21.67° C | 91% | 1008.6 hPa | 0 mm | - | 44 W/m² | - |
| 1788093343 | 21.67° C | 91% | 1008.7 hPa | 0 mm | - | 37 W/m² | - |
| 1788093037 | 21.11° C | 91% | 1008.6 hPa | 0 mm | - | 31 W/m² | - |
| 1788092734 | 21.11° C | 91% | 1008.6 hPa | 0 mm | - | 29 W/m² | - |
| 1788092430 | 21.11° C | 91% | 1008.4 hPa | 0 mm | - | 27 W/m² | - |
| 1788092126 | 21.11° C | 92% | 1008.4 hPa | 0 mm | - | 24 W/m² | - |
* Rain latest hour (hover to see other rain measurements)
** Current wind speed in m/s (hover to see current wind gust speed)